owner,sensor,date,latitude,longitude,air_pressure(mBar),qcFlag 
WAVCIS,ioos:station:WAVCIS:CSI03:1,2012-08-01T00:00:00Z,29.4412,-92.0613,1008.41,11111222 
WAVCIS,ioos:station:WAVCIS:CSI03:1,2012-08-01T01:00:00Z,29.4412,-92.0613,1008.5,11111222 
WAVCIS,ioos:station:WAVCIS:CSI03:1,2012-08-01T02:00:00Z,29.4412,-92.0613,1008.93,11111222 
WAVCIS,ioos:station:WAVCIS:CSI03:1,2012-08-01T03:00:00Z,29.4412,-92.0613,1009.51,11111222 
WAVCIS,ioos:station:WAVCIS:CSI03:1,2012-08-01T04:00:00Z,29.4412,-92.0613,1009.38,11111222 
WAVCIS,ioos:station:WAVCIS:CSI03:1,2012-08-01T05:00:00Z,29.4412,-92.0613,1009.26,11111222 
WAVCIS,ioos:station:WAVCIS:CSI03:1,2012-08-01T06:00:00Z,29.4412,-92.0613,1008.8,11111222 
WAVCIS,ioos:station:WAVCIS:CSI03:1,2012-08-01T07:00:00Z,29.4412,-92.0613,1008.55,11111222 
WAVCIS,ioos:station:WAVCIS:CSI03:1,2012-08-01T08:00:00Z,29.4412,-92.0613,1008.24,11111222 
WAVCIS,ioos:station:WAVCIS:CSI03:1,2012-08-01T09:00:00Z,29.4412,-92.0613,1008.2,11111222 
WAVCIS,ioos:station:WAVCIS:CSI03:1,2012-08-01T10:00:00Z,29.4412,-92.0613,1008.6,11111222 
WAVCIS,ioos:station:WAVCIS:CSI03:1,2012-08-01T11:00:00Z,29.4412,-92.0613,1008.52,11111222 
WAVCIS,ioos:station:WAVCIS:CSI03:1,2012-08-01T12:00:00Z,29.4412,-92.0613,1009.18,11111222 
WAVCIS,ioos:station:WAVCIS:CSI03:1,2012-08-01T13:00:00Z,29.4412,-92.0613,1009.51,11111222 
WAVCIS,ioos:station:WAVCIS:CSI03:1,2012-08-01T14:00:00Z,29.4412,-92.0613,1009.87,11111222 
WAVCIS,ioos:station:WAVCIS:CSI03:1,2012-08-01T15:00:00Z,29.4412,-92.0613,1010.24,11111222 
WAVCIS,ioos:station:WAVCIS:CSI03:1,2012-08-01T16:00:00Z,29.4412,-92.0613,1010.47,11111222 
WAVCIS,ioos:station:WAVCIS:CSI03:1,2012-08-01T17:00:00Z,29.4412,-92.0613,1010.15,11111222 
WAVCIS,ioos:station:WAVCIS:CSI03:1,2012-08-01T18:00:00Z,29.4412,-92.0613,1009.98,11111222 
WAVCIS,ioos:station:WAVCIS:CSI03:1,2012-08-01T19:00:00Z,29.4412,-92.0613,1009.37,11111222 
WAVCIS,ioos:station:WAVCIS:CSI03:1,2012-08-01T20:00:00Z,29.4412,-92.0613,1008.78,11111222 
WAVCIS,ioos:station:WAVCIS:CSI03:1,2012-08-01T21:00:00Z,29.4412,-92.0613,1008.22,11111222 
WAVCIS,ioos:station:WAVCIS:CSI03:1,2012-08-01T22:00:00Z,29.4412,-92.0613,1007.73,11111222 
WAVCIS,ioos:station:WAVCIS:CSI03:1,2012-08-01T23:00:00Z,29.4412,-92.0613,1007.33,11111222 
WAVCIS,ioos:station:WAVCIS:CSI03:1,2012-08-02T00:00:00Z,29.4412,-92.0613,1007.03,11111222 
WAVCIS,ioos:station:WAVCIS:CSI03:1,2012-08-02T01:00:00Z,29.4412,-92.0613,1007.03,11111222 
WAVCIS,ioos:station:WAVCIS:CSI03:1,2012-08-02T02:00:00Z,29.4412,-92.0613,1006.93,11111222 
WAVCIS,ioos:station:WAVCIS:CSI03:1,2012-08-02T03:00:00Z,29.4412,-92.0613,1007.38,11111222 
WAVCIS,ioos:station:WAVCIS:CSI03:1,2012-08-02T04:00:00Z,29.4412,-92.0613,1007.23,11111222 
WAVCIS,ioos:station:WAVCIS:CSI03:1,2012-08-02T05:00:00Z,29.4412,-92.0613,1007.05,11111222 
WAVCIS,ioos:station:WAVCIS:CSI03:1,2012-08-02T06:00:00Z,29.4412,-92.0613,1006.99,11111222 
WAVCIS,ioos:station:WAVCIS:CSI03:1,2012-08-02T07:00:00Z,29.4412,-92.0613,1006.47,11111222 
WAVCIS,ioos:station:WAVCIS:CSI03:1,2012-08-02T08:00:00Z,29.4412,-92.0613,1006.4,11111222 
WAVCIS,ioos:station:WAVCIS:CSI03:1,2012-08-02T09:00:00Z,29.4412,-92.0613,1006.6,11111222 
WAVCIS,ioos:station:WAVCIS:CSI03:1,2012-08-02T10:00:00Z,29.4412,-92.0613,1006.51,11111222 
WAVCIS,ioos:station:WAVCIS:CSI03:1,2012-08-02T11:00:00Z,29.4412,-92.0613,1007.15,11111222 
WAVCIS,ioos:station:WAVCIS:CSI03:1,2012-08-02T12:00:00Z,29.4412,-92.0613,1007.66,11111222 
WAVCIS,ioos:station:WAVCIS:CSI03:1,2012-08-02T13:00:00Z,29.4412,-92.0613,1008.32,11111222 
WAVCIS,ioos:station:WAVCIS:CSI03:1,2012-08-02T14:00:00Z,29.4412,-92.0613,1008.81,11111222 
WAVCIS,ioos:station:WAVCIS:CSI03:1,2012-08-02T15:00:00Z,29.4412,-92.0613,1008.71,11111222 
WAVCIS,ioos:station:WAVCIS:CSI03:1,2012-08-02T16:00:00Z,29.4412,-92.0613,1008.86,11111222 
WAVCIS,ioos:station:WAVCIS:CSI03:1,2012-08-02T17:00:00Z,29.4412,-92.0613,1008.66,11111222 
WAVCIS,ioos:station:WAVCIS:CSI03:1,2012-08-02T18:00:00Z,29.4412,-92.0613,1008.51,11111222 
WAVCIS,ioos:station:WAVCIS:CSI03:1,2012-08-02T19:00:00Z,29.4412,-92.0613,1008.09,11111222 
WAVCIS,ioos:station:WAVCIS:CSI03:1,2012-08-02T20:00:00Z,29.4412,-92.0613,1007.3,11111222 
WAVCIS,ioos:station:WAVCIS:CSI03:1,2012-08-02T21:00:00Z,29.4412,-92.0613,1006.96,11111222 
WAVCIS,ioos:station:WAVCIS:CSI03:1,2012-08-02T22:00:00Z,29.4412,-92.0613,1006.64,11111222 
WAVCIS,ioos:station:WAVCIS:CSI03:1,2012-08-02T23:00:00Z,29.4412,-92.0613,1006.45,11111222 
WAVCIS,ioos:station:WAVCIS:CSI03:1,2012-08-03T00:00:00Z,29.4412,-92.0613,1005.81,11111222 
WAVCIS,ioos:station:WAVCIS:CSI03:1,2012-08-03T01:00:00Z,29.4412,-92.0613,1006.29,11111222 
WAVCIS,ioos:station:WAVCIS:CSI03:1,2012-08-03T02:00:00Z,29.4412,-92.0613,1006.12,11111222 
WAVCIS,ioos:station:WAVCIS:CSI03:1,2012-08-03T03:00:00Z,29.4412,-92.0613,1006.07,11111222 
WAVCIS,ioos:station:WAVCIS:CSI03:1,2012-08-03T04:00:00Z,29.4412,-92.0613,1006.49,11111222 
WAVCIS,ioos:station:WAVCIS:CSI03:1,2012-08-03T05:00:00Z,29.4412,-92.0613,1006.28,11111222 
WAVCIS,ioos:station:WAVCIS:CSI03:1,2012-08-03T06:00:00Z,29.4412,-92.0613,1006.16,11111222 
WAVCIS,ioos:station:WAVCIS:CSI03:1,2012-08-03T07:00:00Z,29.4412,-92.0613,1005.67,11111222 
WAVCIS,ioos:station:WAVCIS:CSI03:1,2012-08-03T08:00:00Z,29.4412,-92.0613,1005.77,11111222 
WAVCIS,ioos:station:WAVCIS:CSI03:1,2012-08-03T09:00:00Z,29.4412,-92.0613,1005.9,11111222 
WAVCIS,ioos:station:WAVCIS:CSI03:1,2012-08-03T10:00:00Z,29.4412,-92.0613,1005.99,11111222 
WAVCIS,ioos:station:WAVCIS:CSI03:1,2012-08-03T11:00:00Z,29.4412,-92.0613,1006.43,11111222 
WAVCIS,ioos:station:WAVCIS:CSI03:1,2012-08-03T12:00:00Z,29.4412,-92.0613,1006.96,11111222 
WAVCIS,ioos:station:WAVCIS:CSI03:1,2012-08-03T13:00:00Z,29.4412,-92.0613,1007.59,11111222 
WAVCIS,ioos:station:WAVCIS:CSI03:1,2012-08-03T14:00:00Z,29.4412,-92.0613,1008.21,11111222 
WAVCIS,ioos:station:WAVCIS:CSI03:1,2012-08-03T15:00:00Z,29.4412,-92.0613,1008.74,11111222 
WAVCIS,ioos:station:WAVCIS:CSI03:1,2012-08-03T16:00:00Z,29.4412,-92.0613,1009.01,11111222 
WAVCIS,ioos:station:WAVCIS:CSI03:1,2012-08-03T17:00:00Z,29.4412,-92.0613,1009.18,11111222 
WAVCIS,ioos:station:WAVCIS:CSI03:1,2012-08-03T18:00:00Z,29.4412,-92.0613,1008.99,11111222 
WAVCIS,ioos:station:WAVCIS:CSI03:1,2012-08-03T19:00:00Z,29.4412,-92.0613,1008.6,11111222 
WAVCIS,ioos:station:WAVCIS:CSI03:1,2012-08-03T20:00:00Z,29.4412,-92.0613,1007.98,11111222 
WAVCIS,ioos:station:WAVCIS:CSI03:1,2012-08-03T21:00:00Z,29.4412,-92.0613,1007.31,11111222 
WAVCIS,ioos:station:WAVCIS:CSI03:1,2012-08-03T22:00:00Z,29.4412,-92.0613,1007.2,11111222 
WAVCIS,ioos:station:WAVCIS:CSI03:1,2012-08-03T23:00:00Z,29.4412,-92.0613,1007.1,11111222 
WAVCIS,ioos:station:WAVCIS:CSI03:1,2012-08-04T00:00:00Z,29.4412,-92.0613,1007.06,11111222 
WAVCIS,ioos:station:WAVCIS:CSI03:1,2012-08-04T01:00:00Z,29.4412,-92.0613,1006.78,11111222 
WAVCIS,ioos:station:WAVCIS:CSI03:1,2012-08-04T02:00:00Z,29.4412,-92.0613,1007.42,11111222 
WAVCIS,ioos:station:WAVCIS:CSI03:1,2012-08-04T03:00:00Z,29.4412,-92.0613,1007.93,11111222 
WAVCIS,ioos:station:WAVCIS:CSI03:1,2012-08-04T04:00:00Z,29.4412,-92.0613,1008.04,11111222 
WAVCIS,ioos:station:WAVCIS:CSI03:1,2012-08-04T05:00:00Z,29.4412,-92.0613,1007.9,11111222 
WAVCIS,ioos:station:WAVCIS:CSI03:1,2012-08-04T06:00:00Z,29.4412,-92.0613,1007.67,11111222 
WAVCIS,ioos:station:WAVCIS:CSI03:1,2012-08-04T07:00:00Z,29.4412,-92.0613,1007.24,11111222 
WAVCIS,ioos:station:WAVCIS:CSI03:1,2012-08-04T08:00:00Z,29.4412,-92.0613,1006.82,11111222 
WAVCIS,ioos:station:WAVCIS:CSI03:1,2012-08-04T09:00:00Z,29.4412,-92.0613,1006.84,11111222 
WAVCIS,ioos:station:WAVCIS:CSI03:1,2012-08-04T10:00:00Z,29.4412,-92.0613,1007.43,11111222 
WAVCIS,ioos:station:WAVCIS:CSI03:1,2012-08-04T11:00:00Z,29.4412,-92.0613,1007.9,11111222 
WAVCIS,ioos:station:WAVCIS:CSI03:1,2012-08-04T12:00:00Z,29.4412,-92.0613,1009.08,11111222 
WAVCIS,ioos:station:WAVCIS:CSI03:1,2012-08-04T13:00:00Z,29.4412,-92.0613,1009.18,11111222 
WAVCIS,ioos:station:WAVCIS:CSI03:1,2012-08-04T14:00:00Z,29.4412,-92.0613,1010.08,11111222 
WAVCIS,ioos:station:WAVCIS:CSI03:1,2012-08-04T15:00:00Z,29.4412,-92.0613,1010.45,11111222 
WAVCIS,ioos:station:WAVCIS:CSI03:1,2012-08-04T16:00:00Z,29.4412,-92.0613,1010.78,11111222 
WAVCIS,ioos:station:WAVCIS:CSI03:1,2012-08-04T17:00:00Z,29.4412,-92.0613,1010.77,11111222 
WAVCIS,ioos:station:WAVCIS:CSI03:1,2012-08-04T18:00:00Z,29.4412,-92.0613,1010.76,11111222 
WAVCIS,ioos:station:WAVCIS:CSI03:1,2012-08-04T19:00:00Z,29.4412,-92.0613,1010.26,11111222 
WAVCIS,ioos:station:WAVCIS:CSI03:1,2012-08-04T20:00:00Z,29.4412,-92.0613,1010.06,11111222 
WAVCIS,ioos:station:WAVCIS:CSI03:1,2012-08-04T21:00:00Z,29.4412,-92.0613,1009.5,11111222 
WAVCIS,ioos:station:WAVCIS:CSI03:1,2012-08-04T22:00:00Z,29.4412,-92.0613,1009.17,11111222 
WAVCIS,ioos:station:WAVCIS:CSI03:1,2012-08-04T23:00:00Z,29.4412,-92.0613,1009.08,11111222 
WAVCIS,ioos:station:WAVCIS:CSI03:1,2012-08-05T00:00:00Z,29.4412,-92.0613,1009.58,11111222 
WAVCIS,ioos:station:WAVCIS:CSI03:1,2012-08-05T01:00:00Z,29.4412,-92.0613,1009.46,11111222 
WAVCIS,ioos:station:WAVCIS:CSI03:1,2012-08-05T02:00:00Z,29.4412,-92.0613,1010.26,11111222 
WAVCIS,ioos:station:WAVCIS:CSI03:1,2012-08-05T03:00:00Z,29.4412,-92.0613,1010.82,11111222 
WAVCIS,ioos:station:WAVCIS:CSI03:1,2012-08-05T04:00:00Z,29.4412,-92.0613,1010.77,11111222 
WAVCIS,ioos:station:WAVCIS:CSI03:1,2012-08-05T05:00:00Z,29.4412,-92.0613,1010.52,11111222 
WAVCIS,ioos:station:WAVCIS:CSI03:1,2012-08-05T06:00:00Z,29.4412,-92.0613,1009.7,11111222 
WAVCIS,ioos:station:WAVCIS:CSI03:1,2012-08-05T07:00:00Z,29.4412,-92.0613,1009.92,11111222 
WAVCIS,ioos:station:WAVCIS:CSI03:1,2012-08-05T08:00:00Z,29.4412,-92.0613,1010.48,11111222 
WAVCIS,ioos:station:WAVCIS:CSI03:1,2012-08-05T09:00:00Z,29.4412,-92.0613,1010.51,11111222 
WAVCIS,ioos:station:WAVCIS:CSI03:1,2012-08-05T10:00:00Z,29.4412,-92.0613,1010.23,11111222 
WAVCIS,ioos:station:WAVCIS:CSI03:1,2012-08-05T11:00:00Z,29.4412,-92.0613,1010.67,11111222 
WAVCIS,ioos:station:WAVCIS:CSI03:1,2012-08-05T12:00:00Z,29.4412,-92.0613,1011.83,11111222 
WAVCIS,ioos:station:WAVCIS:CSI03:1,2012-08-05T13:00:00Z,29.4412,-92.0613,1012.05,11111222 
WAVCIS,ioos:station:WAVCIS:CSI03:1,2012-08-05T14:00:00Z,29.4412,-92.0613,1012.34,11111222 
WAVCIS,ioos:station:WAVCIS:CSI03:1,2012-08-05T15:00:00Z,29.4412,-92.0613,1013.02,11111222 
WAVCIS,ioos:station:WAVCIS:CSI03:1,2012-08-05T16:00:00Z,29.4412,-92.0613,1013.12,11111222 
WAVCIS,ioos:station:WAVCIS:CSI03:1,2012-08-05T17:00:00Z,29.4412,-92.0613,1013.12,11111222 
WAVCIS,ioos:station:WAVCIS:CSI03:1,2012-08-05T18:00:00Z,29.4412,-92.0613,1012.8,11111222 
WAVCIS,ioos:station:WAVCIS:CSI03:1,2012-08-05T19:00:00Z,29.4412,-92.0613,1012.76,11111222 
WAVCIS,ioos:station:WAVCIS:CSI03:1,2012-08-05T20:00:00Z,29.4412,-92.0613,1012.24,11111222 
WAVCIS,ioos:station:WAVCIS:CSI03:1,2012-08-05T21:00:00Z,29.4412,-92.0613,1011.59,11111222 
WAVCIS,ioos:station:WAVCIS:CSI03:1,2012-08-05T22:00:00Z,29.4412,-92.0613,1011.65,11111222 
WAVCIS,ioos:station:WAVCIS:CSI03:1,2012-08-05T23:00:00Z,29.4412,-92.0613,1011.16,11111222 
WAVCIS,ioos:station:WAVCIS:CSI03:1,2012-08-06T00:00:00Z,29.4412,-92.0613,1010.24,11111222 
WAVCIS,ioos:station:WAVCIS:CSI03:1,2012-08-06T01:00:00Z,29.4412,-92.0613,1010.17,11111222 
WAVCIS,ioos:station:WAVCIS:CSI03:1,2012-08-06T02:00:00Z,29.4412,-92.0613,1011.52,11111222 
WAVCIS,ioos:station:WAVCIS:CSI03:1,2012-08-06T03:00:00Z,29.4412,-92.0613,1012.12,11111222 
WAVCIS,ioos:station:WAVCIS:CSI03:1,2012-08-06T04:00:00Z,29.4412,-92.0613,1012.03,11111222 
WAVCIS,ioos:station:WAVCIS:CSI03:1,2012-08-06T05:00:00Z,29.4412,-92.0613,1011.85,11111222 
WAVCIS,ioos:station:WAVCIS:CSI03:1,2012-08-06T06:00:00Z,29.4412,-92.0613,1011.22,11111222 
WAVCIS,ioos:station:WAVCIS:CSI03:1,2012-08-06T07:00:00Z,29.4412,-92.0613,1011.08,11111222 
WAVCIS,ioos:station:WAVCIS:CSI03:1,2012-08-06T08:00:00Z,29.4412,-92.0613,1010.35,11111222 
WAVCIS,ioos:station:WAVCIS:CSI03:1,2012-08-06T09:00:00Z,29.4412,-92.0613,1010.11,11111222 
WAVCIS,ioos:station:WAVCIS:CSI03:1,2012-08-06T10:00:00Z,29.4412,-92.0613,1010.42,11111222 
WAVCIS,ioos:station:WAVCIS:CSI03:1,2012-08-06T11:00:00Z,29.4412,-92.0613,1010.92,11111222 
WAVCIS,ioos:station:WAVCIS:CSI03:1,2012-08-06T12:00:00Z,29.4412,-92.0613,1011.51,11111222 
WAVCIS,ioos:station:WAVCIS:CSI03:1,2012-08-06T13:00:00Z,29.4412,-92.0613,1011.88,11111222 
WAVCIS,ioos:station:WAVCIS:CSI03:1,2012-08-06T14:00:00Z,29.4412,-92.0613,1012.1,11111222 
WAVCIS,ioos:station:WAVCIS:CSI03:1,2012-08-06T15:00:00Z,29.4412,-92.0613,1012.14,11111222 
WAVCIS,ioos:station:WAVCIS:CSI03:1,2012-08-06T16:00:00Z,29.4412,-92.0613,1012.48,11111222 
WAVCIS,ioos:station:WAVCIS:CSI03:1,2012-08-06T17:00:00Z,29.4412,-92.0613,1012.33,11111222 
WAVCIS,ioos:station:WAVCIS:CSI03:1,2012-08-06T18:00:00Z,29.4412,-92.0613,1011.69,11111222 
WAVCIS,ioos:station:WAVCIS:CSI03:1,2012-08-06T19:00:00Z,29.4412,-92.0613,1010.9,11111222 
WAVCIS,ioos:station:WAVCIS:CSI03:1,2012-08-06T20:00:00Z,29.4412,-92.0613,1009.82,11111222 
WAVCIS,ioos:station:WAVCIS:CSI03:1,2012-08-06T21:00:00Z,29.4412,-92.0613,1008.93,11111222 
WAVCIS,ioos:station:WAVCIS:CSI03:1,2012-08-06T22:00:00Z,29.4412,-92.0613,1008.73,11111222 
WAVCIS,ioos:station:WAVCIS:CSI03:1,2012-08-06T23:00:00Z,29.4412,-92.0613,1008.69,11111222 
WAVCIS,ioos:station:WAVCIS:CSI03:1,2012-08-07T00:00:00Z,29.4412,-92.0613,1008.49,11111222 
WAVCIS,ioos:station:WAVCIS:CSI03:1,2012-08-07T01:00:00Z,29.4412,-92.0613,1008.75,11111222 
WAVCIS,ioos:station:WAVCIS:CSI03:1,2012-08-07T02:00:00Z,29.4412,-92.0613,1008.94,11111222 
WAVCIS,ioos:station:WAVCIS:CSI03:1,2012-08-07T03:00:00Z,29.4412,-92.0613,1009.15,11111222 
WAVCIS,ioos:station:WAVCIS:CSI03:1,2012-08-07T04:00:00Z,29.4412,-92.0613,1008.1,11111222 
WAVCIS,ioos:station:WAVCIS:CSI03:1,2012-08-07T05:00:00Z,29.4412,-92.0613,1008.21,11111222 
WAVCIS,ioos:station:WAVCIS:CSI03:1,2012-08-07T06:00:00Z,29.4412,-92.0613,1007.93,11111222 
WAVCIS,ioos:station:WAVCIS:CSI03:1,2012-08-07T07:00:00Z,29.4412,-92.0613,1008.01,11111222 
WAVCIS,ioos:station:WAVCIS:CSI03:1,2012-08-07T08:00:00Z,29.4412,-92.0613,1008.05,11111222 
WAVCIS,ioos:station:WAVCIS:CSI03:1,2012-08-07T09:00:00Z,29.4412,-92.0613,1007.92,11111222 
WAVCIS,ioos:station:WAVCIS:CSI03:1,2012-08-07T10:00:00Z,29.4412,-92.0613,1008.13,11111222 
WAVCIS,ioos:station:WAVCIS:CSI03:1,2012-08-07T11:00:00Z,29.4412,-92.0613,1007.94,11111222 
WAVCIS,ioos:station:WAVCIS:CSI03:1,2012-08-07T12:00:00Z,29.4412,-92.0613,1008.21,11111222 
WAVCIS,ioos:station:WAVCIS:CSI03:1,2012-08-07T13:00:00Z,29.4412,-92.0613,1008.68,11111222 
WAVCIS,ioos:station:WAVCIS:CSI03:1,2012-08-07T14:00:00Z,29.4412,-92.0613,1009.3,11111222 
WAVCIS,ioos:station:WAVCIS:CSI03:1,2012-08-07T15:00:00Z,29.4412,-92.0613,1009.51,11111222 
WAVCIS,ioos:station:WAVCIS:CSI03:1,2012-08-07T16:00:00Z,29.4412,-92.0613,1009.53,11111222 
WAVCIS,ioos:station:WAVCIS:CSI03:1,2012-08-07T17:00:00Z,29.4412,-92.0613,1009.18,11111222 
WAVCIS,ioos:station:WAVCIS:CSI03:1,2012-08-07T18:00:00Z,29.4412,-92.0613,1008.9,11111222 
WAVCIS,ioos:station:WAVCIS:CSI03:1,2012-08-07T19:00:00Z,29.4412,-92.0613,1008.31,11111222 
WAVCIS,ioos:station:WAVCIS:CSI03:1,2012-08-07T20:00:00Z,29.4412,-92.0613,1008.0,11111222 
WAVCIS,ioos:station:WAVCIS:CSI03:1,2012-08-07T21:00:00Z,29.4412,-92.0613,1007.33,11111222 
WAVCIS,ioos:station:WAVCIS:CSI03:1,2012-08-07T22:00:00Z,29.4412,-92.0613,1006.79,11111222 
WAVCIS,ioos:station:WAVCIS:CSI03:1,2012-08-07T23:00:00Z,29.4412,-92.0613,1006.8,11111222 
WAVCIS,ioos:station:WAVCIS:CSI03:1,2012-08-08T00:00:00Z,29.4412,-92.0613,1007.07,11111222 
WAVCIS,ioos:station:WAVCIS:CSI03:1,2012-08-08T01:00:00Z,29.4412,-92.0613,1007.28,11111222 
WAVCIS,ioos:station:WAVCIS:CSI03:1,2012-08-08T02:00:00Z,29.4412,-92.0613,1007.54,11111222 
WAVCIS,ioos:station:WAVCIS:CSI03:1,2012-08-08T03:00:00Z,29.4412,-92.0613,1007.99,11111222 
WAVCIS,ioos:station:WAVCIS:CSI03:1,2012-08-08T04:00:00Z,29.4412,-92.0613,1008.27,11111222 
WAVCIS,ioos:station:WAVCIS:CSI03:1,2012-08-08T05:00:00Z,29.4412,-92.0613,1007.81,11111222 
WAVCIS,ioos:station:WAVCIS:CSI03:1,2012-08-08T06:00:00Z,29.4412,-92.0613,1007.67,11111222 
WAVCIS,ioos:station:WAVCIS:CSI03:1,2012-08-08T07:00:00Z,29.4412,-92.0613,1007.67,11111222 
WAVCIS,ioos:station:WAVCIS:CSI03:1,2012-08-08T08:00:00Z,29.4412,-92.0613,1007.63,11111222 
WAVCIS,ioos:station:WAVCIS:CSI03:1,2012-08-08T09:00:00Z,29.4412,-92.0613,1007.54,11111222 
WAVCIS,ioos:station:WAVCIS:CSI03:1,2012-08-08T10:00:00Z,29.4412,-92.0613,1007.82,11111222 
WAVCIS,ioos:station:WAVCIS:CSI03:1,2012-08-08T11:00:00Z,29.4412,-92.0613,1007.94,11111222 
WAVCIS,ioos:station:WAVCIS:CSI03:1,2012-08-08T12:00:00Z,29.4412,-92.0613,1008.58,11111222 
WAVCIS,ioos:station:WAVCIS:CSI03:1,2012-08-08T13:00:00Z,29.4412,-92.0613,1009.21,11111222 
WAVCIS,ioos:station:WAVCIS:CSI03:1,2012-08-08T14:00:00Z,29.4412,-92.0613,1009.7,11111222 
WAVCIS,ioos:station:WAVCIS:CSI03:1,2012-08-08T15:00:00Z,29.4412,-92.0613,1010.37,11111222 
WAVCIS,ioos:station:WAVCIS:CSI03:1,2012-08-08T16:00:00Z,29.4412,-92.0613,1010.41,11111222 
WAVCIS,ioos:station:WAVCIS:CSI03:1,2012-08-08T17:00:00Z,29.4412,-92.0613,1010.17,11111222 
WAVCIS,ioos:station:WAVCIS:CSI03:1,2012-08-08T18:00:00Z,29.4412,-92.0613,1009.41,11111222 
WAVCIS,ioos:station:WAVCIS:CSI03:1,2012-08-08T19:00:00Z,29.4412,-92.0613,1009.53,11111222 
WAVCIS,ioos:station:WAVCIS:CSI03:1,2012-08-08T20:00:00Z,29.4412,-92.0613,1009.35,11111222 
WAVCIS,ioos:station:WAVCIS:CSI03:1,2012-08-08T21:00:00Z,29.4412,-92.0613,1008.55,11111222 
WAVCIS,ioos:station:WAVCIS:CSI03:1,2012-08-08T22:00:00Z,29.4412,-92.0613,1007.32,11111222 
WAVCIS,ioos:station:WAVCIS:CSI03:1,2012-08-08T23:00:00Z,29.4412,-92.0613,1006.96,11111222 
WAVCIS,ioos:station:WAVCIS:CSI03:1,2012-08-09T00:00:00Z,29.4412,-92.0613,1007.83,11111222 
WAVCIS,ioos:station:WAVCIS:CSI03:1,2012-08-09T01:00:00Z,29.4412,-92.0613,1008.09,11111222 
WAVCIS,ioos:station:WAVCIS:CSI03:1,2012-08-09T02:00:00Z,29.4412,-92.0613,1008.45,11111222 
WAVCIS,ioos:station:WAVCIS:CSI03:1,2012-08-09T03:00:00Z,29.4412,-92.0613,1008.55,11111222 
WAVCIS,ioos:station:WAVCIS:CSI03:1,2012-08-09T04:00:00Z,29.4412,-92.0613,1008.63,11111222 
WAVCIS,ioos:station:WAVCIS:CSI03:1,2012-08-09T05:00:00Z,29.4412,-92.0613,1008.25,11111222 
WAVCIS,ioos:station:WAVCIS:CSI03:1,2012-08-09T06:00:00Z,29.4412,-92.0613,1008.05,11111222 
WAVCIS,ioos:station:WAVCIS:CSI03:1,2012-08-09T07:00:00Z,29.4412,-92.0613,1007.9,11111222 
WAVCIS,ioos:station:WAVCIS:CSI03:1,2012-08-09T08:00:00Z,29.4412,-92.0613,1007.78,11111222 
WAVCIS,ioos:station:WAVCIS:CSI03:1,2012-08-09T09:00:00Z,29.4412,-92.0613,1007.96,11111222 
WAVCIS,ioos:station:WAVCIS:CSI03:1,2012-08-09T10:00:00Z,29.4412,-92.0613,1007.77,11111222 
WAVCIS,ioos:station:WAVCIS:CSI03:1,2012-08-09T11:00:00Z,29.4412,-92.0613,1008.15,11111222 
WAVCIS,ioos:station:WAVCIS:CSI03:1,2012-08-09T12:00:00Z,29.4412,-92.0613,1008.45,11111222 
WAVCIS,ioos:station:WAVCIS:CSI03:1,2012-08-09T13:00:00Z,29.4412,-92.0613,1008.81,11111222 
WAVCIS,ioos:station:WAVCIS:CSI03:1,2012-08-09T14:00:00Z,29.4412,-92.0613,1009.06,11111222 
WAVCIS,ioos:station:WAVCIS:CSI03:1,2012-08-09T15:00:00Z,29.4412,-92.0613,1009.02,11111222 
WAVCIS,ioos:station:WAVCIS:CSI03:1,2012-08-09T16:00:00Z,29.4412,-92.0613,1009.02,11111222 
WAVCIS,ioos:station:WAVCIS:CSI03:1,2012-08-09T17:00:00Z,29.4412,-92.0613,1008.7,11111222 
WAVCIS,ioos:station:WAVCIS:CSI03:1,2012-08-09T18:00:00Z,29.4412,-92.0613,1008.88,11111222 
WAVCIS,ioos:station:WAVCIS:CSI03:1,2012-08-09T19:00:00Z,29.4412,-92.0613,1009.08,11111222 
WAVCIS,ioos:station:WAVCIS:CSI03:1,2012-08-09T20:00:00Z,29.4412,-92.0613,1007.72,11111222 
WAVCIS,ioos:station:WAVCIS:CSI03:1,2012-08-09T21:00:00Z,29.4412,-92.0613,1006.85,11111222 
WAVCIS,ioos:station:WAVCIS:CSI03:1,2012-08-09T22:00:00Z,29.4412,-92.0613,1006.75,11111222 
WAVCIS,ioos:station:WAVCIS:CSI03:1,2012-08-09T23:00:00Z,29.4412,-92.0613,1006.97,11111222 
WAVCIS,ioos:station:WAVCIS:CSI03:1,2012-08-10T00:00:00Z,29.4412,-92.0613,1007.14,11111222 
WAVCIS,ioos:station:WAVCIS:CSI03:1,2012-08-10T01:00:00Z,29.4412,-92.0613,1007.06,11111222 
WAVCIS,ioos:station:WAVCIS:CSI03:1,2012-08-10T02:00:00Z,29.4412,-92.0613,1006.76,11111222 
WAVCIS,ioos:station:WAVCIS:CSI03:1,2012-08-10T03:00:00Z,29.4412,-92.0613,1006.51,11111222 
WAVCIS,ioos:station:WAVCIS:CSI03:1,2012-08-10T04:00:00Z,29.4412,-92.0613,1006.73,11111222 
WAVCIS,ioos:station:WAVCIS:CSI03:1,2012-08-10T05:00:00Z,29.4412,-92.0613,1006.57,11111222 
WAVCIS,ioos:station:WAVCIS:CSI03:1,2012-08-10T06:00:00Z,29.4412,-92.0613,1006.39,11111222 
WAVCIS,ioos:station:WAVCIS:CSI03:1,2012-08-10T07:00:00Z,29.4412,-92.0613,1006.06,11111222 
WAVCIS,ioos:station:WAVCIS:CSI03:1,2012-08-10T08:00:00Z,29.4412,-92.0613,1005.32,11111222 
WAVCIS,ioos:station:WAVCIS:CSI03:1,2012-08-10T09:00:00Z,29.4412,-92.0613,1006.15,11111222 
WAVCIS,ioos:station:WAVCIS:CSI03:1,2012-08-10T10:00:00Z,29.4412,-92.0613,1005.6,11111222 
WAVCIS,ioos:station:WAVCIS:CSI03:1,2012-08-10T11:00:00Z,29.4412,-92.0613,1005.1,11111222 
WAVCIS,ioos:station:WAVCIS:CSI03:1,2012-08-10T12:00:00Z,29.4412,-92.0613,1006.44,11111222 
WAVCIS,ioos:station:WAVCIS:CSI03:1,2012-08-10T13:00:00Z,29.4412,-92.0613,1007.3,11111222 
WAVCIS,ioos:station:WAVCIS:CSI03:1,2012-08-10T14:00:00Z,29.4412,-92.0613,1006.9,11111222 
WAVCIS,ioos:station:WAVCIS:CSI03:1,2012-08-10T15:00:00Z,29.4412,-92.0613,1007.34,11111222 
WAVCIS,ioos:station:WAVCIS:CSI03:1,2012-08-10T16:00:00Z,29.4412,-92.0613,1007.78,11111222 
WAVCIS,ioos:station:WAVCIS:CSI03:1,2012-08-10T17:00:00Z,29.4412,-92.0613,1007.58,11111222 
WAVCIS,ioos:station:WAVCIS:CSI03:1,2012-08-10T18:00:00Z,29.4412,-92.0613,1007.19,11111222 
WAVCIS,ioos:station:WAVCIS:CSI03:1,2012-08-10T19:00:00Z,29.4412,-92.0613,1006.83,11111222 
WAVCIS,ioos:station:WAVCIS:CSI03:1,2012-08-10T20:00:00Z,29.4412,-92.0613,1006.6,11111222 
WAVCIS,ioos:station:WAVCIS:CSI03:1,2012-08-10T21:00:00Z,29.4412,-92.0613,1006.21,11111222 
WAVCIS,ioos:station:WAVCIS:CSI03:1,2012-08-10T22:00:00Z,29.4412,-92.0613,1005.81,11111222 
WAVCIS,ioos:station:WAVCIS:CSI03:1,2012-08-10T23:00:00Z,29.4412,-92.0613,1004.99,11111222 
WAVCIS,ioos:station:WAVCIS:CSI03:1,2012-08-11T00:00:00Z,29.4412,-92.0613,1004.64,11111222 
WAVCIS,ioos:station:WAVCIS:CSI03:1,2012-08-11T01:00:00Z,29.4412,-92.0613,1004.75,11111222 
WAVCIS,ioos:station:WAVCIS:CSI03:1,2012-08-11T02:00:00Z,29.4412,-92.0613,1005.53,11111222 
WAVCIS,ioos:station:WAVCIS:CSI03:1,2012-08-11T03:00:00Z,29.4412,-92.0613,1006.08,11111222 
WAVCIS,ioos:station:WAVCIS:CSI03:1,2012-08-11T04:00:00Z,29.4412,-92.0613,1006.37,11111222 
WAVCIS,ioos:station:WAVCIS:CSI03:1,2012-08-11T05:00:00Z,29.4412,-92.0613,1005.22,11111222 
WAVCIS,ioos:station:WAVCIS:CSI03:1,2012-08-11T06:00:00Z,29.4412,-92.0613,1005.55,11111222 
WAVCIS,ioos:station:WAVCIS:CSI03:1,2012-08-11T07:00:00Z,29.4412,-92.0613,1005.42,11111222 
WAVCIS,ioos:station:WAVCIS:CSI03:1,2012-08-11T08:00:00Z,29.4412,-92.0613,1005.43,11111222 
WAVCIS,ioos:station:WAVCIS:CSI03:1,2012-08-11T09:00:00Z,29.4412,-92.0613,1005.39,11111222 
WAVCIS,ioos:station:WAVCIS:CSI03:1,2012-08-11T10:00:00Z,29.4412,-92.0613,1005.29,11111222 
WAVCIS,ioos:station:WAVCIS:CSI03:1,2012-08-11T11:00:00Z,29.4412,-92.0613,1005.9,11111222 
WAVCIS,ioos:station:WAVCIS:CSI03:1,2012-08-11T12:00:00Z,29.4412,-92.0613,1006.24,11111222 
WAVCIS,ioos:station:WAVCIS:CSI03:1,2012-08-11T13:00:00Z,29.4412,-92.0613,1007.02,11111222 
WAVCIS,ioos:station:WAVCIS:CSI03:1,2012-08-11T14:00:00Z,29.4412,-92.0613,1007.74,11111222 
WAVCIS,ioos:station:WAVCIS:CSI03:1,2012-08-11T15:00:00Z,29.4412,-92.0613,1008.63,11111222 
WAVCIS,ioos:station:WAVCIS:CSI03:1,2012-08-11T16:00:00Z,29.4412,-92.0613,1008.99,11111222 
WAVCIS,ioos:station:WAVCIS:CSI03:1,2012-08-11T17:00:00Z,29.4412,-92.0613,1008.51,11111222 
WAVCIS,ioos:station:WAVCIS:CSI03:1,2012-08-11T18:00:00Z,29.4412,-92.0613,1007.74,11111222 
WAVCIS,ioos:station:WAVCIS:CSI03:1,2012-08-11T19:00:00Z,29.4412,-92.0613,1007.71,11111222 
WAVCIS,ioos:station:WAVCIS:CSI03:1,2012-08-11T20:00:00Z,29.4412,-92.0613,1007.25,11111222 
WAVCIS,ioos:station:WAVCIS:CSI03:1,2012-08-11T21:00:00Z,29.4412,-92.0613,1006.71,11111222 
WAVCIS,ioos:station:WAVCIS:CSI03:1,2012-08-11T22:00:00Z,29.4412,-92.0613,1006.6,11111222 